This is the latest recevied weather packets stored in our database for station/object K1ABC. If no packets are shown the sender has not sent any weather packets the latest 10 day(s).
| Time | Temp. | Humidity | Pressure | Rain* | Wind** | Luminosity | Snow |
|---|---|---|---|---|---|---|---|
| 1777745570 | 15° C | 64% | 1010.6 hPa | 0 mm | - | - | - |
| 1777743621 | 13.89° C | 71% | 1010.8 hPa | 0 mm | - | - | - |
| 1777743373 | 13.33° C | 74% | 1010.7 hPa | 0 mm | - | - | - |
| 1777743006 | 12.78° C | 74% | 1010.9 hPa | 0 mm | - | - | - |
| 1777742691 | 12.78° C | 73% | 1011 hPa | 0 mm | - | - | - |
| 1777742121 | 13.33° C | 73% | 1011.1 hPa | 0 mm | - | - | - |
| 1777741871 | 13.89° C | 71% | 1011.1 hPa | 0 mm | - | - | - |
| 1777741746 | 14.44° C | 70% | 1011.1 hPa | 0 mm | - | - | - |
| 1777740714 | 12.78° C | 73% | 1011.3 hPa | 0 mm | - | - | - |
| 1777738832 | 12.78° C | 75% | 1011.5 hPa | 0 mm | - | - | - |
| 1777738582 | 12.22° C | 76% | 1011.5 hPa | 0 mm | - | - | - |
| 1777737876 | 11.67° C | 78% | 1011.5 hPa | 0 mm | - | - | - |
| 1777737555 | 11.67° C | 80% | 1011.5 hPa | 0 mm | - | - | - |
| 1777735047 | 10.56° C | 84% | 1011.5 hPa | 0 mm | - | - | - |
| 1777734606 | 10.56° C | 83% | 1011.6 hPa | 0 mm | - | - | - |
| 1777733332 | 8.89° C | 91% | 1011.9 hPa | 0 mm | - | - | - |
| 1777733085 | 8.89° C | 90% | 1012 hPa | 0 mm | - | - | - |
| 1777732573 | 8.33° C | 91% | 1012.1 hPa | 0 mm | - | - | - |
| 1777732205 | 8.33° C | 90% | 1012.2 hPa | 0 mm | - | - | - |
| 1777731845 | 8.33° C | 91% | 1012.3 hPa | 0 mm | - | - | - |
| 1777730826 | 7.78° C | 90% | 1012.3 hPa | 0 mm | - | - | - |
| 1777726873 | 7.22° C | 88% | 1012.4 hPa | 0 mm | - | - | - |
| 1777725429 | 6.67° C | 87% | 1012.3 hPa | 1.02 mm | - | - | - |
| 1777725182 | 6.67° C | 88% | 1012.4 hPa | 1.27 mm | - | - | - |
| 1777724934 | 6.67° C | 89% | 1012.4 hPa | 1.52 mm | - | - | - |
* Rain latest hour (hover to see other rain measurements)
** Current wind speed in m/s (hover to see current wind gust speed)